Location: Brissac
(47.3500°N, 0.4500°W)
Time: 15:30:00
(UTC+02:00)

ISS - Pass Details

Date: 21 May 2021
Orbit: 419 x 422 km, 51.6° (Epoch: 25 June)

Event Time Altitude Azimuth Distance (km) Brightness Sun altitude
Rises 00:22:01 0° 287° (WNW) 2,373 0.7 -19.1°
Reaches altitude 10° 00:24:12 10° 295° (WNW) 1,508 -0.3 -19.2°
Maximum altitude 00:27:25 40° 6° (N) 642 -2.4 -19.4°
Enters shadow 00:29:49 16° 72° (ENE) 1,205 -1.5 -19.6°
